Weather History for Long Beach, CA

Change the Weather History Date:

Saturday, May 4, 2013

  Actual Average Record
Temperature  
Mean Temperature 63 °F 65 °F  
Max Temperature 69 °F 73 °F 92 °F (1990)
Min Temperature 57 °F 56 °F 48 °F (1959)
Degree Days  
Heating Degree Days 2 2  
Month to date heating degree days 2 8  
Since 1 July heating degree days 1033 1184  
Cooling Degree Days 0 2  
Month to date cooling degree days 23 8  
Year to date cooling degree days 52 55  
Growing Degree Days 13 (Base 50)    
Moisture  
Dew Point 54 °F    
Average Humidity 72    
Maximum Humidity 84    
Minimum Humidity 59    
Precipitation  
Precipitation 0.00 in 0.01 in 0.21 in (1960)
Month to date precipitation 0.00 0.04  
Year to date precipitation 2.21 8.20  
Since 1 July precipitation 6.01 12.02  
Sea Level Pressure  
Sea Level Pressure 29.80 in    
Wind  
Wind Speed 9 mph (SSE)    
Max Wind Speed 16 mph    
Max Gust Speed 25 mph    
Visibility 9 miles    
Events      
T = Trace of Precipitation, MM = Missing Value Source: NWS Daily Summary

Daily Weather History Graph

Daily Weather History Graph

Search for Another Location

Airport:

Trip Planner

Search our weather history database for the weather conditions in past years. The results will help you decide how hot, cold, wet, or windy it might be!

Date:

Astronomy

May. 04, 2013 Rise Set
Actual Time 6:00 AM PDT 7:38 PM PDT
Civil Twilight 5:33 AM PDT 8:05 PM PDT
Nautical Twilight 5:01 AM PDT 8:37 PM PDT
Astronomical Twilight 4:27 AM PDT 9:11 PM PDT
Moon 2:46 AM PDT (5/4) 2:54 PM PDT (5/4)
Length of Visible Light 14h 31m
Length of Day
13h 38m
Waning Crescent, 26% of the Moon is Illuminated
May 4
Waning Crescent
May 9
New
May 17
First Quarter
May 24
Full
May 31
Last Quarter

Hourly Weather History & Observations

Time (PDT) Temp. Dew Point Humidity Pressure Visibility Wind Dir Wind Speed Gust Speed Precip Events Conditions
12:53 AM 64.0 °F 57.0 °F 78% 29.80 in 10.0 mi Calm Calm - N/A   Clear
1:53 AM 63.0 °F 57.9 °F 84% 29.79 in 8.0 mi Calm Calm - N/A   Clear
2:00 AM 62.6 °F 57.2 °F 82% 29.78 in 8.0 mi SSE 3.5 mph - N/A   Partly Cloudy
2:24 AM 62.6 °F 59.0 °F 88% 29.78 in 8.0 mi SE 5.8 mph - N/A   Mostly Cloudy
2:53 AM 63.0 °F 57.9 °F 84% 29.78 in 8.0 mi SE 6.9 mph - N/A   Overcast
3:53 AM 62.1 °F 57.0 °F 84% 29.77 in 9.0 mi SSE 6.9 mph - N/A   Mostly Cloudy
4:53 AM 61.0 °F 55.9 °F 83% 29.77 in 9.0 mi SSE 4.6 mph - N/A   Mostly Cloudy
5:17 AM 60.8 °F 55.4 °F 82% 29.77 in 9.0 mi SE 6.9 mph - N/A   Partly Cloudy
5:53 AM 60.1 °F 55.0 °F 83% 29.77 in 9.0 mi SSE 5.8 mph - N/A   Clear
6:53 AM 60.1 °F 55.0 °F 83% 29.79 in 8.0 mi SSE 5.8 mph - N/A   Scattered Clouds
7:02 AM 60.8 °F 55.4 °F 82% 29.80 in 8.0 mi SSE 8.1 mph - N/A   Mostly Cloudy
7:53 AM 62.1 °F 54.0 °F 75% 29.81 in 8.0 mi SSE 9.2 mph - N/A   Overcast
8:46 AM 64.4 °F 53.6 °F 68% 29.81 in 9.0 mi SE 13.8 mph - N/A   Scattered Clouds
8:53 AM 63.0 °F 53.1 °F 70% 29.81 in 9.0 mi SSE 10.4 mph 19.6 mph N/A   Scattered Clouds
9:53 AM 64.0 °F 54.0 °F 70% 29.81 in 9.0 mi South 12.7 mph 23.0 mph N/A   Mostly Cloudy
10:53 AM 66.0 °F 53.1 °F 63% 29.82 in 9.0 mi South 10.4 mph 21.9 mph N/A   Scattered Clouds
11:53 AM 66.0 °F 53.1 °F 63% 29.81 in 9.0 mi South 12.7 mph 20.7 mph N/A   Scattered Clouds
12:53 PM 66.9 °F 53.1 °F 61% 29.79 in 10.0 mi South 8.1 mph 19.6 mph N/A   Clear
1:53 PM 68.0 °F 54.0 °F 61% 29.78 in 10.0 mi SSE 10.4 mph 17.3 mph N/A   Clear
2:53 PM 66.9 °F 53.1 °F 61% 29.77 in 10.0 mi SSE 11.5 mph 18.4 mph N/A   Clear
3:53 PM 66.9 °F 54.0 °F 63% 29.76 in 9.0 mi South 11.5 mph 19.6 mph N/A   Clear
4:30 PM 64.4 °F 53.6 °F 68% 29.77 in 9.0 mi South 10.4 mph - N/A   Mostly Cloudy
4:53 PM 64.9 °F 54.0 °F 68% 29.78 in 9.0 mi South 9.2 mph 18.4 mph N/A   Overcast
5:53 PM 64.0 °F 54.0 °F 70% 29.78 in 8.0 mi SSE 10.4 mph 17.3 mph N/A   Overcast
6:53 PM 63.0 °F 53.1 °F 70% 29.79 in 7.0 mi SSE 10.4 mph 16.1 mph N/A   Overcast
7:53 PM 62.1 °F 55.0 °F 78% 29.80 in 8.0 mi South 9.2 mph - N/A   Overcast
8:53 PM 62.1 °F 53.1 °F 72% 29.83 in 9.0 mi SSE 8.1 mph - N/A   Overcast
9:53 PM 61.0 °F 52.0 °F 72% 29.85 in 10.0 mi South 5.8 mph - N/A   Overcast
10:53 PM 57.9 °F 51.1 °F 78% 29.86 in 10.0 mi SE 6.9 mph - N/A   Overcast
11:53 PM 61.0 °F 48.9 °F 64% 29.85 in 10.0 mi SE 10.4 mph - N/A   Overcast